Location: Stony Creek
(40.9500°S, 175.8500°E)
Time: 10:08:30
(UTC+00:00)

Cosmos 405 Rocket - Pass Details

Date: 15 May 2026
Orbit: 352 x 371 km, 81.2° (Epoch: 10 June)

Event Time Altitude Azimuth Distance (km) Brightness Sun altitude
Exits shadow 18:12:05 - 194° (SSW) 1,760 5.1 -12.5°
Reaches altitude 10° 18:12:55 10° 196° (SSW) 1,407 4.6 -12.3°
Maximum altitude 18:15:56 64° 277° (W) 423 2.0 -11.8°
Drops below altitude 10° 18:18:52 10° 359° (N) 1,364 5.0 -11.3°
Sets 18:20:48 0° 2° (N) 2,196 6.1 -10.9°
